SCP
0 0 0 0 0 0 0 0 0 0 0 0 0 0 0 0 0 0 0 0 0 0 0 0 0 0 0 0 0 0 0 0 0 0 0 0 0 0 0 0 0 0 0 0 0 0 0 0 0 0 0 0 0 0
0 0 0 0 0 0 0 0 0 0 0 0 0 0 0 0 0 0 0 0 0 0 0 0 0 0 0 0 0 0 0 0 0 0 0 0 0 0 0 0 0 0 0 0 0 0 0 0 0 0 0 0 0 0
0 0 0 0 0 0 0 0 0 0 0 0 0 0 0 0 0 0 0 0 0 0 0 0 0 0 0 0 0 0 0 0 0 0 0 0 -0 0 0 0 0 0 0 0 0 0 0 0 0 0 0 0 0 0
0 0 0 0 0 0 0 0 0 0 0 0 0 0 0 0 0 0 0 0 0 0 0 0 0 0 0 0 0 0 0 0 0 0 0 0 0 -0 -0 -0 0 0 0 0 0 0 0 0 0 0 0 0 0 0
0 0 0 0 0 0 0 0 0 0 0 0 0 0 0 0 0 0 0 0 0 0 0 0 0 0 0 0 0 0 0 0 0 0 0 0 0 0 0 -0 -0 -0 -0 0 -0 0 0 0 0 0 0 0 0 0
0 0 0 0 0 0 0 0 0 0 0 0 0 0 0 0 0 0 0 0 0 0 0 0 0 0 0 0 0 0 0 0 0 0 0 0 0 0 -0 -0 -0 -0 -0 -0 -0 -0 0 0 0 0 0 0 0 0
0 0 0 0 0 0 0 0 0 0 0 0 0 0 0 0 0 0 0 0 0 0 0 0 0 0 0 0 0 0 0 0 0 0 0 0 0 0 0 -0 -0 -0 0 -0 -0 -0 -0 -0 0 0 0 0 0 0
0 0 0 0 0 0 0 0 0 0 0 0 0 0 0 0 0 0 0 0 0 0 0 0 0 0 0 0 0 0 0 0 0 0 0 0 0 0 0 -0 -0 -0 0 0 -0 -0 -0 -0 0 0 0 0 0 0
0 0 0 0 0 0 0 -0 -0 -0 0 0 0 0 0 0 0 0 0 0 0 0 0 0 0 0 0 0 0 0 0 0 0 0 0 0 0 0 0 0 0 0 0 0 0 0 -0 0 0 0 0 0 0 0
0 0 0 0 0 0 0 0 0 0 0 0 0 0 0 0 0 0 0 0 0 0 0 0 0 0 0 0 0 0 0 0 0 0 0 0 0 0 0 0 0 0 0 0 0 -0 -0 -0 0 0 0 0 0 0
0 0 0 0 0 0 0 0 0 0 0 0 0 0 0 0 0 0 0 0 0 0 0 0 0 0 0 0 0 0 0 0 0 0 0 0 0 0 0 0 0 0 0 0 0 0 0 0 0 0 0 0 0 0
0 0 0 0 0 0 0 0 0 0 0 0 0 0 0 0 0 0 0 0 0 0 0 0 0 0 0 0 -0 0 0 0 0 0 -0 -0 -0 -0 -0 0 0 0 0 0 0 0 0 -0 0 0 0 0 0 0
0 0 0 0 0 -0 0 0 0 0 0 0 0 0 0 0 0 0 0 0 0 0 0 0 0 0 0 0 0 -0 0 -0 -0 0 0 -0 -0 -0 -0 0 0 0 0 0 0 0 0 0 0 0 0 0 0 0
0 0 0 0 0 -0 -0 0 0 0 0 0 0 0 0 0 0 0 0 0 0 0 0 0 0 0 0 -0 -0 -0 0 -0 0 0 -0 -0 -0 -0 -0 -0 0 0 0 0 0 0 0 0 -0 0 0 0 0 0
-0 -0 0 0 0 0 0 0 0 0 0 0 0 0 0 0 0 0 0 0 0 0 0 0 -0 0 -0 -0 -0 -0 -0 0 0 0 0 -0 -0 -0 -0 0 -0 0 0 0 0 0 0 0 0 0 0 0 0 0
-0 -0 0 -0 0 0 0 0 0 0 0 0 0 0 0 0 0 0 -0 0 0 0 -0 -0 -0 -0 -0 -0 -0 -0 0 0 0 0 0 -0 -0 -0 0 0 -0 0 0 0 0 0 0 0 0 0 0 0 0 0
-0 0 0 0 0 0 0 0 0 0 0 0 0 0 0 -0 -0 0 0 0 -0 -0 0 -0 -0 -0 -0 -0 -0 0 -0 -0 0 0 0 -0 -0 -0 0 -0 0 0 0 0 0 0 0 0 0 0 0 0 0 0
0 0 0 0 0 0 0 0 0 0 0 0 0 0 0 0 0 0 0 0 0 0 0 0 -0 -0 -0 -0 0 -0 0 -0 -0 -0 0 -0 -0 0 0 -0 -0 0 0 0 0 0 0 0 0 0 0 0 0 0
0 0 0 0 0 0 0 0 0 0 -0 0 0 0 0 0 0 0 0 0 0 0 -0 -0 -0 -0 0 0 -0 -0 -0 -0 -0 -0 -0 -0 -0 -0 0 0 -0 -0 0 0 0 0 0 0 0 0 0 0 0 0
-0 0 -0 -0 0 0 0 0 0 0 -0 -0 0 0 0 0 0 0 0 -0 0 -0 -0 -0 -0 0 0 -0 -0 -0 -0 -0 -0 -0 -0 -0 -0 0 0 0 0 0 0 0 0 0 0 0 0 0 0 0 0 0
0 0 0 0 0 -0 0 0 -0 -0 -0 -0 0 -0 0 0 0 -0 0 -0 -0 -0 -0 -0 -0 -0 -0 -0 -0 -0 -0 -0 -0 -0 -0 -0 -0 -0 -0 -0 0 0 0 0 0 0 0 0 0 0 0 0 0 0
0 0 0 -0 -0 -0 -0 -0 0 0 -0 0 0 -0 -0 -0 -0 -0 -0 -0 -0 0 0 0 0 0 -0 -0 -0 -0 -0 -0 -0 -0 -0 -0 -0 0 -0 0 0 0 0 0 0 0 0 0 0 0 0 0 0 0
0 0 -0 -0 -0 -0 0 0 0 0 -0 -0 -0 -0 -0 -0 -0 -0 -0 -0 0 0 -0 -0 -0 -0 -0 -0 -0 -0 -0 -0 -0 0 0 0 0 0 0 0 0 0 0 0 0 0 0 0 0 0 0 0 0 0
0 0 0 0 0 0 0 0 -0 -0 -0 -0 -0 0 0 0 -0 -0 0 0 0 -0 -0 -0 -0 -0 0 -0 0 0 0 -0 0 0 0 0 0 0 0 0 0 0 0 0 0 0 0 0 0 0 0 0 0 0
-0 0 0 0 0 0 0 0 -0 -0 -0 -0 0 0 0 0 0 0 0 0 -0 -0 -0 0 -0 0 0 -0 0 -0 -0 0 0 0 0 0 0 0 0 0 0 0 0 0 0 0 0 0 0 0 0 0 0 0
0 0 0 0 0 0 -0 -0 -0 -0 -0 -0 -0 0 0 0 0 0 -0 -0 -0 -0 0 -0 -0 0 0 0 0 0 0 0 0 0 0 0 -0 -0 -0 0 0 0 0 0 0 0 0 0 0 0 0 0 0 0
0 0 0 0 0 -0 -0 -0 -0 -0 -0 -0 -0 0 0 0 0 0 -0 -0 -0 0 0 0 0 0 -0 -0 -0 -0 0 -0 -0 -0 0 0 0 0 0 0 0 0 0 0 0 0 0 0 0 0 0 0 0 0
0 0 0 0 -0 -0 -0 -0 -0 -0 -0 -0 -0 0 0 0 0 0 0 0 0 0 0 0 0 0 -0 -0 -0 0 0 0 0 0 0 0 0 0 0 0 0 0 0 0 0 0 0 0 0 0 0 0 0 0
0 0 0 -0 -0 -0 -0 -0 -0 -0 -0 -0 0 0 0 0 0 0 0 0 0 0 0 0 0 0 0 0 0 0 0 0 0 -0 0 0 0 0 0 0 0 -0 -0 -0 -0 0 0 0 0 0 0 0 0 0
0 0 -0 -0 -0 -0 -0 -0 -0 -0 -0 -0 -0 0 0 0 0 -0 -0 0 0 0 0 0 0 0 0 0 0 0 0 0 0 0 0 0 0 0 0 0 0 0 0 -0 -0 -0 -0 0 0 0 0 0 0 0
0 0 -0 -0 -0 -0 -0 -0 -0 -0 -0 -0 -0 -0 0 0 0 -0 0 0 0 0 0 0 0 0 0 0 0 0 0 0 0 0 0 0 0 0 0 0 0 0 0 0 0 0 0 0 0 0 0 0 0 0
0 -0 -0 -0 0 0 0 0 0 -0 -0 -0 -0 0 0 0 0 0 0 0 0 0 0 0 0 0 0 0 0 0 0 -0 0 0 -0 0 0 0 0 0 0 0 0 0 0 0 0 0 0 0 0 0 0 0
0 0 -0 0 0 0 0 0 0 0 -0 -0 -0 0 0 0 0 0 0 0 0 0 0 0 0 0 0 0 0 0 0 0 0 0 0 0 0 0 0 0 0 0 0 0 0 0 0 -0 0 0 0 0 -0 -0
Wind_Speed_500mb
63 65 67 70 65 61 60 60 58 53 53 52 51 47 46 44 43 39 43 43 49 53 60 55 44 40 26 28 16 20 11 4 6 7 7 7 12 3 11 21 21 11 12 19 29 26 34 12 3 33 28 19 8 15
69 69 70 66 65 63 61 59 58 57 56 56 54 52 48 43 41 40 51 50 58 60 62 60 57 64 56 61 43 31 19 16 10 6 3 6 16 14 19 10 14 12 4 13 11 28 6 12 16 42 32 20 24 12
75 75 69 68 65 65 65 63 61 64 63 61 60 57 52 51 45 43 54 58 66 66 77 75 66 82 71 74 75 43 28 38 27 37 13 8 16 11 14 19 22 17 36 9 22 27 19 47 49 29 55 56 57 39
78 71 69 67 65 64 64 66 65 67 65 66 63 59 54 49 47 50 62 65 66 50 33 51 57 57 63 55 61 80 82 56 41 37 25 13 17 23 22 27 30 32 40 26 40 52 48 40 21 73 84 75 73 65
73 70 71 66 68 66 67 71 71 70 68 65 65 57 52 53 53 57 67 77 76 64 38 29 47 42 48 59 62 63 69 77 59 35 18 20 36 27 30 28 36 47 50 28 32 37 45 76 94 91 79 78 83 66
71 70 73 71 66 70 72 77 77 67 66 56 61 57 55 56 52 59 55 60 57 70 38 9 39 60 74 78 62 65 78 69 62 31 24 40 69 33 19 33 62 71 78 88 84 86 84 98 110 92 79 71 66 87
68 65 66 68 71 71 68 67 65 64 69 62 58 59 59 60 58 62 36 33 20 13 13 10 12 12 52 54 66 73 66 58 58 63 45 53 55 51 30 46 72 72 74 81 82 68 75 75 84 96 88 85 93 81
59 66 71 71 71 72 67 65 62 61 61 58 60 59 62 62 62 67 69 66 62 59 27 8 10 16 38 38 23 40 41 46 36 41 32 29 48 48 36 72 78 84 85 91 86 78 99 88 89 103 94 84 87 82
74 72 75 78 70 64 61 63 64 62 57 60 61 59 59 57 51 64 51 45 49 47 9 11 16 17 13 21 25 13 17 9 28 17 25 33 31 28 55 85 85 98 96 110 94 96 89 79 87 90 94 91 81 78
68 68 70 64 63 63 60 60 54 52 51 51 49 45 20 28 41 34 25 17 22 32 30 13 34 19 15 20 10 12 17 17 18 26 55 34 43 109 138 141 117 101 96 98 85 89 96 93 98 99 100 87 80 76
70 67 64 59 60 63 55 52 52 50 46 46 21 15 29 26 22 13 12 8 8 5 12 25 45 25 23 9 12 15 8 8 17 30 29 39 49 62 99 115 120 113 95 96 103 108 96 91 93 84 81 77 78 78
62 56 57 52 55 51 50 47 45 43 44 33 14 19 16 13 16 10 9 7 8 9 13 12 18 20 10 6 11 11 8 9 17 10 13 26 56 89 83 87 99 115 114 116 109 102 98 95 99 88 86 82 79 71
53 51 49 49 45 45 43 40 40 40 39 41 21 13 12 14 12 10 11 5 6 9 16 14 7 9 12 20 13 10 14 14 9 11 15 32 45 71 79 82 101 102 113 121 114 111 105 107 101 85 81 81 76 77
50 50 48 46 45 43 45 37 37 36 29 15 20 11 10 8 9 9 11 13 21 14 16 13 6 10 17 10 12 12 14 11 12 23 48 38 49 74 80 87 88 87 97 110 107 107 113 113 102 90 89 84 80 79
46 46 44 43 42 38 36 36 34 30 24 20 13 9 13 19 17 25 30 28 38 29 22 7 14 18 12 13 11 12 10 14 16 15 24 37 62 66 49 26 54 70 79 91 98 103 105 98 88 89 88 92 87 76
47 44 47 42 39 37 37 33 29 30 11 10 11 5 8 14 10 20 34 42 44 32 22 14 8 10 16 10 13 19 14 16 17 14 21 50 52 52 35 23 35 57 68 72 79 86 84 74 81 89 80 79 77 84
42 49 48 46 43 39 34 32 25 13 13 11 10 35 40 34 30 35 32 50 37 25 8 6 9 19 8 10 23 17 17 14 30 68 63 57 57 45 38 30 21 37 46 55 60 65 66 70 70 61 61 66 76 77
42 39 34 33 29 25 28 29 12 8 11 30 11 43 40 48 51 50 58 60 34 32 26 12 13 17 16 32 31 27 46 85 85 82 82 91 74 45 29 20 9 21 32 46 52 53 49 50 31 36 45 60 65 69
39 36 31 26 20 21 9 12 19 12 34 34 45 47 42 40 57 62 56 60 62 54 18 9 13 13 24 23 27 51 63 61 73 91 95 94 77 46 30 15 2 11 21 38 43 37 31 35 31 39 54 59 73 77
37 33 30 24 22 11 9 12 16 13 8 21 34 40 43 44 54 50 58 65 59 22 13 10 20 45 60 90 76 77 79 89 82 81 94 84 61 40 28 18 5 10 17 27 35 41 30 42 30 44 58 69 78 81
32 30 26 21 22 21 9 9 13 14 11 13 17 31 25 34 31 44 53 54 22 13 16 41 70 94 92 97 90 82 92 90 96 81 82 70 64 39 26 17 9 13 19 30 38 43 42 45 42 49 63 56 61 74
26 21 21 21 13 11 17 20 14 8 9 12 7 14 9 5 14 21 33 21 17 56 60 61 65 68 73 84 94 82 87 84 87 87 66 53 38 23 19 12 12 17 21 27 35 43 40 43 51 42 23 35 54 64
17 16 10 15 18 21 12 17 10 11 4 5 6 5 6 7 19 26 5 17 19 10 26 38 46 53 71 86 84 87 82 77 70 46 28 13 5 8 11 6 11 19 24 24 26 37 45 42 47 57 61 45 49 65
15 8 9 9 14 7 6 8 8 5 5 4 4 9 11 5 10 5 8 7 5 40 40 52 57 60 44 32 42 52 50 40 35 27 15 12 5 4 5 2 8 15 18 27 32 39 42 44 48 53 59 68 74 77
6 8 7 7 4 1 4 4 5 2 6 7 7 7 5 7 6 8 4 9 36 44 62 61 55 41 39 36 25 20 12 19 24 15 6 6 6 2 4 11 15 19 23 29 35 43 49 50 50 53 58 62 63 67
5 7 6 7 4 5 5 1 4 8 5 5 6 8 8 6 5 4 4 21 39 63 64 60 56 54 33 19 26 15 4 2 3 7 7 2 3 11 17 24 24 25 16 22 36 41 44 48 55 55 54 51 54 58
3 6 3 4 6 4 4 7 8 2 4 4 5 7 6 6 6 3 19 35 69 80 76 59 45 40 36 22 11 7 4 8 5 8 9 10 11 4 17 24 30 25 17 24 28 33 40 43 47 53 54 50 50 55
5 3 4 5 4 1 5 2 3 5 6 4 5 3 6 5 5 14 25 68 79 69 56 35 23 18 14 5 3 7 11 10 20 26 33 32 24 22 25 34 36 31 30 33 35 37 42 47 50 53 54 56 55 57
4 5 5 6 5 2 6 8 6 5 6 5 4 6 7 8 13 20 55 73 62 53 42 27 13 12 9 9 13 13 16 17 25 28 40 40 37 37 41 45 40 40 43 47 44 43 48 54 57 60 62 67 67 70
4 12 1 1 3 5 7 7 11 21 15 14 14 14 12 11 18 30 70 69 66 53 43 36 24 13 8 12 16 15 13 16 30 42 51 46 40 38 46 50 51 58 58 61 62 59 54 58 60 66 71 74 75 78
12 5 2 3 6 8 12 27 16 14 14 12 32 10 12 16 15 28 63 73 59 47 45 41 35 25 26 23 31 40 49 46 50 49 42 44 42 42 51 58 58 66 70 70 67 68 72 76 77 77 76 78 79 79
12 6 2 5 8 9 17 9 2 5 4 16 24 30 28 21 15 45 59 77 68 62 54 41 31 26 31 28 45 58 61 62 62 60 64 66 68 65 58 59 70 85 90 94 97 97 94 96 94 93 93 89 85 81
9 7 5 8 9 9 8 15 8 3 7 8 16 30 28 18 10 25 59 67 72 67 55 32 26 24 32 48 53 57 60 59 58 62 65 68 71 74 75 76 82 92 91 87 81 76 75 75 76 75 74 72 69 65
Wind_Direction_500mb
294 296 298 298 298 298 297 297 297 292 290 289 288 283 279 280 279 273 278 283 284 277 277 267 246 238 232 230 243 265 303 238 264 237 250 252 257 286 276 262 278 265 208 198 218 214 252 235 197 184 219 158 260 205
295 296 297 296 295 295 293 293 292 291 287 286 286 282 279 280 279 276 279 288 290 277 266 276 266 251 248 245 242 228 230 247 251 278 245 307 295 300 288 278 281 262 328 313 242 214 224 305 278 245 259 232 266 232
296 297 294 294 293 291 292 292 288 291 285 283 279 276 277 277 274 278 281 288 288 280 274 256 251 259 250 245 247 236 234 235 235 237 267 254 247 273 269 263 274 299 321 297 338 261 300 303 304 354 355 342 310 280
294 292 291 292 291 291 291 293 290 288 286 279 277 272 272 274 275 279 279 283 282 274 269 270 269 249 253 249 246 244 243 244 247 247 240 240 251 236 254 263 268 268 302 286 292 289 300 262 302 329 324 327 331 323
292 290 292 291 290 289 291 292 290 287 285 282 266 263 269 272 277 281 280 278 271 255 274 279 286 283 266 250 246 242 242 239 235 232 228 238 248 257 253 261 254 242 253 261 259 282 311 297 300 307 308 311 320 320
289 292 289 291 288 286 291 294 283 284 274 269 273 269 275 276 279 286 287 288 273 256 251 257 274 260 242 240 229 243 243 229 225 228 233 242 243 242 257 254 255 253 253 249 258 270 276 279 288 288 296 302 301 310
288 288 289 289 289 291 291 286 283 282 283 286 286 284 282 285 278 264 256 270 290 279 263 284 283 279 242 235 237 236 235 225 222 230 238 246 244 233 246 256 260 254 253 252 254 269 267 263 272 283 289 292 297 299
279 285 288 285 286 287 283 284 287 285 285 283 285 282 282 280 274 266 261 261 264 260 238 231 258 248 255 241 231 236 230 230 228 235 236 233 244 233 246 252 260 254 249 253 257 260 257 263 269 274 281 289 292 294
290 292 290 287 286 284 287 287 287 287 285 284 283 281 277 271 265 270 280 275 262 246 245 241 260 278 227 231 238 245 223 233 235 232 232 237 238 232 244 254 248 244 237 242 244 244 258 267 267 269 275 279 282 282
293 292 292 293 293 291 290 286 283 284 285 283 280 274 252 248 269 269 269 236 207 211 222 241 243 249 229 262 268 265 228 232 235 236 239 236 244 244 246 245 244 244 238 239 234 234 241 249 256 263 265 271 271 271
292 292 289 289 290 291 288 286 283 280 279 276 257 233 262 259 258 240 227 215 207 229 205 223 226 244 242 235 281 239 239 238 247 247 237 245 252 246 251 248 246 246 241 235 232 238 235 239 247 250 262 268 268 275
293 293 292 291 289 289 284 282 283 274 266 261 259 255 229 211 216 208 196 178 211 222 199 199 190 184 197 250 251 234 253 241 253 223 230 238 247 253 246 245 242 239 237 235 233 234 234 233 242 246 254 256 266 280
294 289 289 291 291 286 288 286 279 273 270 255 241 216 193 187 215 218 179 188 229 211 193 191 194 173 212 235 241 231 238 238 238 233 250 254 261 255 245 240 238 234 226 227 228 227 229 237 244 242 242 248 259 269
293 291 289 290 292 287 286 283 285 274 260 212 193 216 189 198 221 196 197 207 224 236 231 201 225 220 230 237 231 247 229 252 252 258 260 273 272 268 258 246 240 232 222 221 220 222 227 234 240 240 237 244 253 252
294 293 289 286 287 292 292 277 280 266 244 211 217 213 195 213 211 238 233 258 260 266 230 232 256 241 232 232 233 229 248 229 229 253 279 282 292 294 286 255 230 223 211 212 217 220 227 229 230 234 240 247 253 235
292 291 285 290 285 288 285 279 276 268 214 221 229 232 216 206 229 241 261 260 262 252 261 226 237 255 233 230 225 219 242 255 282 257 279 308 307 323 300 276 234 208 204 209 215 220 225 226 230 240 246 248 236 226
290 286 293 290 285 279 268 268 272 245 230 210 236 222 229 228 225 232 242 257 267 236 217 211 211 226 275 249 246 241 254 314 324 313 303 313 321 340 336 305 224 206 201 208 216 218 220 224 229 228 229 225 222 219
287 300 300 295 284 262 257 254 247 255 245 226 218 235 225 225 229 238 244 253 230 227 236 223 233 233 241 255 264 268 291 297 302 311 319 308 307 329 343 336 289 209 198 195 186 195 204 197 203 231 221 213 206 204
290 299 301 291 268 250 226 219 203 226 232 238 244 244 226 228 235 244 250 252 251 247 238 208 237 233 239 253 269 272 274 279 296 303 308 306 300 312 336 346 112 182 193 193 181 173 199 199 204 226 214 204 197 194
283 288 292 287 263 267 221 219 214 244 245 257 246 237 222 233 241 242 248 253 246 228 225 214 244 251 259 265 270 279 287 293 294 303 304 308 312 310 310 330 316 152 174 175 183 178 183 182 190 206 206 197 191 186
274 279 285 265 246 247 270 240 237 233 260 247 257 214 226 242 241 241 241 251 222 227 253 250 254 258 264 269 270 271 276 278 283 283 282 286 298 308 300 300 279 194 165 179 180 184 189 190 174 187 183 185 189 188
267 277 261 247 226 229 236 229 231 266 248 253 257 215 232 234 239 240 249 232 235 242 250 261 265 273 280 276 273 271 271 279 282 287 281 277 280 300 300 266 236 219 189 177 185 184 198 191 180 165 195 194 191 189
255 249 242 222 223 207 250 205 200 219 232 268 294 238 242 234 257 269 241 237 226 332 313 302 300 291 282 281 276 268 271 276 275 266 254 240 288 331 345 311 219 207 201 177 179 180 179 182 185 180 173 197 183 178
214 214 226 234 202 228 203 213 222 268 285 260 233 269 274 239 271 239 243 227 357 340 329 323 326 323 316 304 285 280 280 264 243 222 231 258 266 14 7 324 198 197 204 172 166 168 167 167 175 178 179 182 181 176
196 224 231 286 223 42 21 322 348 15 248 249 252 255 259 253 229 233 222 0 333 333 331 325 325 313 307 321 326 282 252 213 209 193 196 200 135 121 122 129 144 140 152 157 154 158 157 160 165 166 166 172 172 168
208 216 178 207 248 165 201 26 230 235 231 277 268 294 283 273 273 294 31 330 329 328 322 315 313 319 321 329 334 338 355 110 210 140 86 81 8 10 168 129 122 113 135 157 154 158 157 159 158 158 158 164 169 166
272 284 268 260 298 294 307 267 249 168 251 253 328 319 299 279 294 334 333 337 331 325 321 318 310 298 296 321 343 317 195 147 13 26 93 68 86 67 109 129 104 101 124 137 141 147 149 150 150 150 149 154 164 166
253 258 175 276 292 332 185 286 247 234 237 246 334 308 275 256 276 333 331 336 331 328 324 326 319 285 272 327 324 187 125 112 107 96 90 82 85 97 101 103 106 112 119 126 131 138 142 142 142 140 142 146 151 156
250 330 300 324 335 276 224 205 243 276 325 292 228 232 254 267 313 338 341 340 344 341 345 6 82 83 118 138 136 132 136 142 145 121 98 99 100 95 101 103 110 119 122 122 120 127 134 136 138 139 142 141 140 142
13 344 37 60 137 255 256 233 282 305 317 326 314 298 296 305 324 347 354 357 356 352 13 29 54 87 108 93 84 85 88 100 132 137 127 115 112 126 126 119 121 124 124 122 121 121 119 121 126 127 129 130 133 133
320 302 251 233 241 247 305 316 312 55 10 348 11 356 328 315 329 351 357 2 4 10 32 56 76 82 94 93 97 98 99 104 104 100 108 119 127 128 128 129 128 125 121 118 117 120 122 121 120 119 121 124 124 123
321 18 105 304 287 317 318 328 201 154 15 20 14 15 9 6 344 355 358 6 9 15 25 38 58 73 82 90 113 109 106 105 102 102 103 104 104 106 109 118 123 123 117 115 114 114 113 114 115 115 115 117 120 122
302 326 346 308 311 325 325 343 14 65 55 27 29 17 11 359 344 343 353 11 4 4 11 37 77 91 107 128 125 120 113 108 108 108 107 105 104 104 103 108 118 124 122 123 122 122 122 123 123 124 124 125 126 127
Wind_Speed_850mb
63 65 67 70 65 61 60 60 58 53 53 52 51 47 46 44 43 39 43 43 49 53 60 55 44 40 26 28 16 20 11 4 6 7 7 7 12 3 11 21 21 11 12 19 29 26 34 12 3 33 28 19 8 15
69 69 70 66 65 63 61 59 58 57 56 56 54 52 48 43 41 40 51 50 58 60 62 60 57 64 56 61 43 31 19 16 10 6 3 6 16 14 19 10 14 12 4 13 11 28 6 12 16 42 32 20 24 12
75 75 69 68 65 65 65 63 61 64 63 61 60 57 52 51 45 43 54 58 66 66 77 75 66 82 71 74 75 43 28 38 27 37 13 8 16 11 14 19 22 17 36 9 22 27 19 47 49 29 55 56 57 39
78 71 69 67 65 64 64 66 65 67 65 66 63 59 54 49 47 50 62 65 66 50 33 51 57 57 63 55 61 80 82 56 41 37 25 13 17 23 22 27 30 32 40 26 40 52 48 40 21 73 84 75 73 65
73 70 71 66 68 66 67 71 71 70 68 65 65 57 52 53 53 57 67 77 76 64 38 29 47 42 48 59 62 63 69 77 59 35 18 20 36 27 30 28 36 47 50 28 32 37 45 76 94 91 79 78 83 66
71 70 73 71 66 70 72 77 77 67 66 56 61 57 55 56 52 59 55 60 57 70 38 9 39 60 74 78 62 65 78 69 62 31 24 40 69 33 19 33 62 71 78 88 84 86 84 98 110 92 79 71 66 87
68 65 66 68 71 71 68 67 65 64 69 62 58 59 59 60 58 62 36 33 20 13 13 10 12 12 52 54 66 73 66 58 58 63 45 53 55 51 30 46 72 72 74 81 82 68 75 75 84 96 88 85 93 81
59 66 71 71 71 72 67 65 62 61 61 58 60 59 62 62 62 67 69 66 62 59 27 8 10 16 38 38 23 40 41 46 36 41 32 29 48 48 36 72 78 84 85 91 86 78 99 88 89 103 94 84 87 82
74 72 75 78 70 64 61 63 64 62 57 60 61 59 59 57 51 64 51 45 49 47 9 11 16 17 13 21 25 13 17 9 28 17 25 33 31 28 55 85 85 98 96 110 94 96 89 79 87 90 94 91 81 78
68 68 70 64 63 63 60 60 54 52 51 51 49 45 20 28 41 34 25 17 22 32 30 13 34 19 15 20 10 12 17 17 18 26 55 34 43 109 138 141 117 101 96 98 85 89 96 93 98 99 100 87 80 76
70 67 64 59 60 63 55 52 52 50 46 46 21 15 29 26 22 13 12 8 8 5 12 25 45 25 23 9 12 15 8 8 17 30 29 39 49 62 99 115 120 113 95 96 103 108 96 91 93 84 81 77 78 78
62 56 57 52 55 51 50 47 45 43 44 33 14 19 16 13 16 10 9 7 8 9 13 12 18 20 10 6 11 11 8 9 17 10 13 26 56 89 83 87 99 115 114 116 109 102 98 95 99 88 86 82 79 71
53 51 49 49 45 45 43 40 40 40 39 41 21 13 12 14 12 10 11 5 6 9 16 14 7 9 12 20 13 10 14 14 9 11 15 32 45 71 79 82 101 102 113 121 114 111 105 107 101 85 81 81 76 77
50 50 48 46 45 43 45 37 37 36 29 15 20 11 10 8 9 9 11 13 21 14 16 13 6 10 17 10 12 12 14 11 12 23 48 38 49 74 80 87 88 87 97 110 107 107 113 113 102 90 89 84 80 79
46 46 44 43 42 38 36 36 34 30 24 20 13 9 13 19 17 25 30 28 38 29 22 7 14 18 12 13 11 12 10 14 16 15 24 37 62 66 49 26 54 70 79 91 98 103 105 98 88 89 88 92 87 76
47 44 47 42 39 37 37 33 29 30 11 10 11 5 8 14 10 20 34 42 44 32 22 14 8 10 16 10 13 19 14 16 17 14 21 50 52 52 35 23 35 57 68 72 79 86 84 74 81 89 80 79 77 84
42 49 48 46 43 39 34 32 25 13 13 11 10 35 40 34 30 35 32 50 37 25 8 6 9 19 8 10 23 17 17 14 30 68 63 57 57 45 38 30 21 37 46 55 60 65 66 70 70 61 61 66 76 77
42 39 34 33 29 25 28 29 12 8 11 30 11 43 40 48 51 50 58 60 34 32 26 12 13 17 16 32 31 27 46 85 85 82 82 91 74 45 29 20 9 21 32 46 52 53 49 50 31 36 45 60 65 69
39 36 31 26 20 21 9 12 19 12 34 34 45 47 42 40 57 62 56 60 62 54 18 9 13 13 24 23 27 51 63 61 73 91 95 94 77 46 30 15 2 11 21 38 43 37 31 35 31 39 54 59 73 77
37 33 30 24 22 11 9 12 16 13 8 21 34 40 43 44 54 50 58 65 59 22 13 10 20 45 60 90 76 77 79 89 82 81 94 84 61 40 28 18 5 10 17 27 35 41 30 42 30 44 58 69 78 81
32 30 26 21 22 21 9 9 13 14 11 13 17 31 25 34 31 44 53 54 22 13 16 41 70 94 92 97 90 82 92 90 96 81 82 70 64 39 26 17 9 13 19 30 38 43 42 45 42 49 63 56 61 74
26 21 21 21 13 11 17 20 14 8 9 12 7 14 9 5 14 21 33 21 17 56 60 61 65 68 73 84 94 82 87 84 87 87 66 53 38 23 19 12 12 17 21 27 35 43 40 43 51 42 23 35 54 64
17 16 10 15 18 21 12 17 10 11 4 5 6 5 6 7 19 26 5 17 19 10 26 38 46 53 71 86 84 87 82 77 70 46 28 13 5 8 11 6 11 19 24 24 26 37 45 42 47 57 61 45 49 65
15 8 9 9 14 7 6 8 8 5 5 4 4 9 11 5 10 5 8 7 5 40 40 52 57 60 44 32 42 52 50 40 35 27 15 12 5 4 5 2 8 15 18 27 32 39 42 44 48 53 59 68 74 77
6 8 7 7 4 1 4 4 5 2 6 7 7 7 5 7 6 8 4 9 36 44 62 61 55 41 39 36 25 20 12 19 24 15 6 6 6 2 4 11 15 19 23 29 35 43 49 50 50 53 58 62 63 67
5 7 6 7 4 5 5 1 4 8 5 5 6 8 8 6 5 4 4 21 39 63 64 60 56 54 33 19 26 15 4 2 3 7 7 2 3 11 17 24 24 25 16 22 36 41 44 48 55 55 54 51 54 58
3 6 3 4 6 4 4 7 8 2 4 4 5 7 6 6 6 3 19 35 69 80 76 59 45 40 36 22 11 7 4 8 5 8 9 10 11 4 17 24 30 25 17 24 28 33 40 43 47 53 54 50 50 55
5 3 4 5 4 1 5 2 3 5 6 4 5 3 6 5 5 14 25 68 79 69 56 35 23 18 14 5 3 7 11 10 20 26 33 32 24 22 25 34 36 31 30 33 35 37 42 47 50 53 54 56 55 57
4 5 5 6 5 2 6 8 6 5 6 5 4 6 7 8 13 20 55 73 62 53 42 27 13 12 9 9 13 13 16 17 25 28 40 40 37 37 41 45 40 40 43 47 44 43 48 54 57 60 62 67 67 70
4 12 1 1 3 5 7 7 11 21 15 14 14 14 12 11 18 30 70 69 66 53 43 36 24 13 8 12 16 15 13 16 30 42 51 46 40 38 46 50 51 58 58 61 62 59 54 58 60 66 71 74 75 78
12 5 2 3 6 8 12 27 16 14 14 12 32 10 12 16 15 28 63 73 59 47 45 41 35 25 26 23 31 40 49 46 50 49 42 44 42 42 51 58 58 66 70 70 67 68 72 76 77 77 76 78 79 79
12 6 2 5 8 9 17 9 2 5 4 16 24 30 28 21 15 45 59 77 68 62 54 41 31 26 31 28 45 58 61 62 62 60 64 66 68 65 58 59 70 85 90 94 97 97 94 96 94 93 93 89 85 81
9 7 5 8 9 9 8 15 8 3 7 8 16 30 28 18 10 25 59 67 72 67 55 32 26 24 32 48 53 57 60 59 58 62 65 68 71 74 75 76 82 92 91 87 81 76 75 75 76 75 74 72 69 65
Wind_Direction_850mb
294 296 298 298 298 298 297 297 297 292 290 289 288 283 279 280 279 273 278 283 284 277 277 267 246 238 232 230 243 265 303 238 264 237 250 252 257 286 276 262 278 265 208 198 218 214 252 235 197 184 219 158 260 205
295 296 297 296 295 295 293 293 292 291 287 286 286 282 279 280 279 276 279 288 290 277 266 276 266 251 248 245 242 228 230 247 251 278 245 307 295 300 288 278 281 262 328 313 242 214 224 305 278 245 259 232 266 232
296 297 294 294 293 291 292 292 288 291 285 283 279 276 277 277 274 278 281 288 288 280 274 256 251 259 250 245 247 236 234 235 235 237 267 254 247 273 269 263 274 299 321 297 338 261 300 303 304 354 355 342 310 280
294 292 291 292 291 291 291 293 290 288 286 279 277 272 272 274 275 279 279 283 282 274 269 270 269 249 253 249 246 244 243 244 247 247 240 240 251 236 254 263 268 268 302 286 292 289 300 262 302 329 324 327 331 323
292 290 292 291 290 289 291 292 290 287 285 282 266 263 269 272 277 281 280 278 271 255 274 279 286 283 266 250 246 242 242 239 235 232 228 238 248 257 253 261 254 242 253 261 259 282 311 297 300 307 308 311 320 320
289 292 289 291 288 286 291 294 283 284 274 269 273 269 275 276 279 286 287 288 273 256 251 257 274 260 242 240 229 243 243 229 225 228 233 242 243 242 257 254 255 253 253 249 258 270 276 279 288 288 296 302 301 310
288 288 289 289 289 291 291 286 283 282 283 286 286 284 282 285 278 264 256 270 290 279 263 284 283 279 242 235 237 236 235 225 222 230 238 246 244 233 246 256 260 254 253 252 254 269 267 263 272 283 289 292 297 299
279 285 288 285 286 287 283 284 287 285 285 283 285 282 282 280 274 266 261 261 264 260 238 231 258 248 255 241 231 236 230 230 228 235 236 233 244 233 246 252 260 254 249 253 257 260 257 263 269 274 281 289 292 294
290 292 290 287 286 284 287 287 287 287 285 284 283 281 277 271 265 270 280 275 262 246 245 241 260 278 227 231 238 245 223 233 235 232 232 237 238 232 244 254 248 244 237 242 244 244 258 267 267 269 275 279 282 282
293 292 292 293 293 291 290 286 283 284 285 283 280 274 252 248 269 269 269 236 207 211 222 241 243 249 229 262 268 265 228 232 235 236 239 236 244 244 246 245 244 244 238 239 234 234 241 249 256 263 265 271 271 271
292 292 289 289 290 291 288 286 283 280 279 276 257 233 262 259 258 240 227 215 207 229 205 223 226 244 242 235 281 239 239 238 247 247 237 245 252 246 251 248 246 246 241 235 232 238 235 239 247 250 262 268 268 275
293 293 292 291 289 289 284 282 283 274 266 261 259 255 229 211 216 208 196 178 211 222 199 199 190 184 197 250 251 234 253 241 253 223 230 238 247 253 246 245 242 239 237 235 233 234 234 233 242 246 254 256 266 280
294 289 289 291 291 286 288 286 279 273 270 255 241 216 193 187 215 218 179 188 229 211 193 191 194 173 212 235 241 231 238 238 238 233 250 254 261 255 245 240 238 234 226 227 228 227 229 237 244 242 242 248 259 269
293 291 289 290 292 287 286 283 285 274 260 212 193 216 189 198 221 196 197 207 224 236 231 201 225 220 230 237 231 247 229 252 252 258 260 273 272 268 258 246 240 232 222 221 220 222 227 234 240 240 237 244 253 252
294 293 289 286 287 292 292 277 280 266 244 211 217 213 195 213 211 238 233 258 260 266 230 232 256 241 232 232 233 229 248 229 229 253 279 282 292 294 286 255 230 223 211 212 217 220 227 229 230 234 240 247 253 235
292 291 285 290 285 288 285 279 276 268 214 221 229 232 216 206 229 241 261 260 262 252 261 226 237 255 233 230 225 219 242 255 282 257 279 308 307 323 300 276 234 208 204 209 215 220 225 226 230 240 246 248 236 226
290 286 293 290 285 279 268 268 272 245 230 210 236 222 229 228 225 232 242 257 267 236 217 211 211 226 275 249 246 241 254 314 324 313 303 313 321 340 336 305 224 206 201 208 216 218 220 224 229 228 229 225 222 219
287 300 300 295 284 262 257 254 247 255 245 226 218 235 225 225 229 238 244 253 230 227 236 223 233 233 241 255 264 268 291 297 302 311 319 308 307 329 343 336 289 209 198 195 186 195 204 197 203 231 221 213 206 204
290 299 301 291 268 250 226 219 203 226 232 238 244 244 226 228 235 244 250 252 251 247 238 208 237 233 239 253 269 272 274 279 296 303 308 306 300 312 336 346 112 182 193 193 181 173 199 199 204 226 214 204 197 194
283 288 292 287 263 267 221 219 214 244 245 257 246 237 222 233 241 242 248 253 246 228 225 214 244 251 259 265 270 279 287 293 294 303 304 308 312 310 310 330 316 152 174 175 183 178 183 182 190 206 206 197 191 186
274 279 285 265 246 247 270 240 237 233 260 247 257 214 226 242 241 241 241 251 222 227 253 250 254 258 264 269 270 271 276 278 283 283 282 286 298 308 300 300 279 194 165 179 180 184 189 190 174 187 183 185 189 188
267 277 261 247 226 229 236 229 231 266 248 253 257 215 232 234 239 240 249 232 235 242 250 261 265 273 280 276 273 271 271 279 282 287 281 277 280 300 300 266 236 219 189 177 185 184 198 191 180 165 195 194 191 189
255 249 242 222 223 207 250 205 200 219 232 268 294 238 242 234 257 269 241 237 226 332 313 302 300 291 282 281 276 268 271 276 275 266 254 240 288 331 345 311 219 207 201 177 179 180 179 182 185 180 173 197 183 178
214 214 226 234 202 228 203 213 222 268 285 260 233 269 274 239 271 239 243 227 357 340 329 323 326 323 316 304 285 280 280 264 243 222 231 258 266 14 7 324 198 197 204 172 166 168 167 167 175 178 179 182 181 176
196 224 231 286 223 42 21 322 348 15 248 249 252 255 259 253 229 233 222 0 333 333 331 325 325 313 307 321 326 282 252 213 209 193 196 200 135 121 122 129 144 140 152 157 154 158 157 160 165 166 166 172 172 168
208 216 178 207 248 165 201 26 230 235 231 277 268 294 283 273 273 294 31 330 329 328 322 315 313 319 321 329 334 338 355 110 210 140 86 81 8 10 168 129 122 113 135 157 154 158 157 159 158 158 158 164 169 166
272 284 268 260 298 294 307 267 249 168 251 253 328 319 299 279 294 334 333 337 331 325 321 318 310 298 296 321 343 317 195 147 13 26 93 68 86 67 109 129 104 101 124 137 141 147 149 150 150 150 149 154 164 166
253 258 175 276 292 332 185 286 247 234 237 246 334 308 275 256 276 333 331 336 331 328 324 326 319 285 272 327 324 187 125 112 107 96 90 82 85 97 101 103 106 112 119 126 131 138 142 142 142 140 142 146 151 156
250 330 300 324 335 276 224 205 243 276 325 292 228 232 254 267 313 338 341 340 344 341 345 6 82 83 118 138 136 132 136 142 145 121 98 99 100 95 101 103 110 119 122 122 120 127 134 136 138 139 142 141 140 142
13 344 37 60 137 255 256 233 282 305 317 326 314 298 296 305 324 347 354 357 356 352 13 29 54 87 108 93 84 85 88 100 132 137 127 115 112 126 126 119 121 124 124 122 121 121 119 121 126 127 129 130 133 133
320 302 251 233 241 247 305 316 312 55 10 348 11 356 328 315 329 351 357 2 4 10 32 56 76 82 94 93 97 98 99 104 104 100 108 119 127 128 128 129 128 125 121 118 117 120 122 121 120 119 121 124 124 123
321 18 105 304 287 317 318 328 201 154 15 20 14 15 9 6 344 355 358 6 9 15 25 38 58 73 82 90 113 109 106 105 102 102 103 104 104 106 109 118 123 123 117 115 114 114 113 114 115 115 115 117 120 122
302 326 346 308 311 325 325 343 14 65 55 27 29 17 11 359 344 343 353 11 4 4 11 37 77 91 107 128 125 120 113 108 108 108 107 105 104 104 103 108 118 124 122 123 122 122 122 123 123 124 124 125 126 127